Time,TemperatureF,DewpointF,PressureIn,WindDirection,WindDirectionDegrees,WindSpeedMPH,WindSpeedGustMPH,Humidity,HourlyPrecipIn,Conditions,Clouds,dailyrainin,SolarRadiationWatts/m^2,SoftwareType,DateUTC
2013-05-30 00:01:00,48.0,46.0,-100.00,NNW,332,2.0,5.0,93,0.00,,,0.13,1.000000,,2013-05-30 06:01:00,
2013-05-30 00:12:00,48.0,46.0,-100.00,NNW,332,2.0,5.0,93,0.00,,,0.13,1.000000,,2013-05-30 06:12:00,
2013-05-30 00:21:00,48.0,46.0,-100.00,NNW,332,2.0,5.0,93,0.00,,,0.13,1.000000,,2013-05-30 06:21:00,
2013-05-30 00:42:00,47.0,46.0,-100.00,WSW,257,2.0,3.0,97,0.00,,,0.13,1.000000,,2013-05-30 06:42:00,
2013-05-30 00:52:00,47.0,46.0,-100.00,WSW,257,2.0,3.0,97,0.00,,,0.13,1.000000,,2013-05-30 06:52:00,
2013-05-30 01:01:00,47.0,46.0,-100.00,WSW,257,2.0,3.0,97,0.00,,,0.13,1.000000,,2013-05-30 07:01:00,
2013-05-30 01:12:00,47.0,46.0,-100.00,WSW,257,2.0,3.0,97,0.00,,,0.13,1.000000,,2013-05-30 07:12:00,
2013-05-30 01:21:00,47.0,46.0,-100.00,WSW,257,2.0,3.0,97,0.00,,,0.13,1.000000,,2013-05-30 07:21:00,
2013-05-30 01:42:00,47.0,46.0,-100.00,WSW,249,0.0,2.0,97,0.01,,,0.14,1.000000,,2013-05-30 07:42:00,
2013-05-30 01:52:00,47.0,46.0,-100.00,WSW,249,0.0,2.0,97,0.01,,,0.14,1.000000,,2013-05-30 07:52:00,
2013-05-30 02:02:00,47.0,46.0,-100.00,WSW,249,0.0,2.0,97,0.01,,,0.14,1.000000,,2013-05-30 08:02:00,
2013-05-30 02:11:00,47.0,46.0,-100.00,WSW,249,0.0,2.0,97,0.01,,,0.14,1.000000,,2013-05-30 08:11:00,
2013-05-30 02:21:00,47.0,46.0,-100.00,WSW,249,0.0,2.0,97,0.01,,,0.14,1.000000,,2013-05-30 08:21:00,
2013-05-30 02:42:00,47.0,45.0,-100.00,SW,217,2.0,8.0,91,0.00,,,0.14,1.000000,,2013-05-30 08:42:00,
2013-05-30 02:53:00,47.0,45.0,-100.00,SW,217,2.0,8.0,91,0.00,,,0.14,1.000000,,2013-05-30 08:53:00,
2013-05-30 03:01:00,47.0,45.0,-100.00,SW,217,2.0,8.0,91,0.00,,,0.14,1.000000,,2013-05-30 09:01:00,
2013-05-30 03:11:00,47.0,45.0,-100.00,SW,217,2.0,8.0,91,0.00,,,0.14,1.000000,,2013-05-30 09:11:00,
2013-05-30 03:21:00,47.0,45.0,-100.00,SW,217,2.0,8.0,91,0.00,,,0.14,1.000000,,2013-05-30 09:21:00,
2013-05-30 03:43:00,47.0,45.0,-100.00,SW,231,3.0,9.0,91,0.00,,,0.14,1.000000,,2013-05-30 09:43:00,
2013-05-30 03:53:00,47.0,45.0,-100.00,SW,231,3.0,9.0,91,0.00,,,0.14,1.000000,,2013-05-30 09:53:00,
2013-05-30 04:03:00,47.0,45.0,-100.00,SW,231,3.0,9.0,91,0.00,,,0.14,1.000000,,2013-05-30 10:03:00,
2013-05-30 04:13:00,47.0,45.0,-100.00,SW,231,3.0,9.0,91,0.00,,,0.14,1.000000,,2013-05-30 10:13:00,
2013-05-30 04:22:00,47.0,45.0,-100.00,SW,231,3.0,9.0,91,0.00,,,0.14,1.000000,,2013-05-30 10:22:00,
2013-05-30 04:42:00,47.0,45.0,-100.00,WSW,246,3.0,8.0,91,0.00,,,0.14,1.000000,,2013-05-30 10:42:00,
2013-05-30 04:52:00,47.0,45.0,-100.00,WSW,246,3.0,8.0,91,0.00,,,0.14,1.000000,,2013-05-30 10:52:00,
2013-05-30 05:03:00,47.0,45.0,-100.00,WSW,246,3.0,8.0,91,0.00,,,0.14,1.000000,,2013-05-30 11:03:00,
2013-05-30 05:12:00,47.0,45.0,-100.00,WSW,246,3.0,8.0,91,0.00,,,0.14,1.000000,,2013-05-30 11:12:00,
2013-05-30 05:22:00,47.0,45.0,-100.00,WSW,246,3.0,8.0,91,0.00,,,0.14,1.000000,,2013-05-30 11:22:00,
2013-05-30 05:42:00,46.0,45.0,-100.00,WSW,244,3.0,8.0,96,0.00,,,0.14,1.000000,,2013-05-30 11:42:00,
2013-05-30 05:52:00,46.0,45.0,-100.00,WSW,244,3.0,8.0,96,0.00,,,0.14,1.000000,,2013-05-30 11:52:00,
2013-05-30 06:01:00,46.0,45.0,-100.00,WSW,244,3.0,8.0,96,0.00,,,0.14,1.000000,,2013-05-30 12:01:00,
2013-05-30 06:11:00,46.0,45.0,-100.00,WSW,244,3.0,8.0,96,0.00,,,0.14,1.000000,,2013-05-30 12:11:00,
2013-05-30 06:22:00,46.0,45.0,-100.00,WSW,244,3.0,8.0,96,0.00,,,0.14,1.000000,,2013-05-30 12:22:00,
2013-05-30 06:42:00,46.0,44.0,-100.00,WSW,243,3.0,6.0,94,0.01,,,0.15,18.000000,,2013-05-30 12:42:00,
2013-05-30 06:52:00,46.0,44.0,-100.00,WSW,243,3.0,6.0,94,0.01,,,0.15,18.000000,,2013-05-30 12:52:00,
2013-05-30 07:01:00,46.0,44.0,-100.00,WSW,243,3.0,6.0,94,0.01,,,0.15,18.000000,,2013-05-30 13:01:00,
2013-05-30 07:11:00,46.0,44.0,-100.00,WSW,243,3.0,6.0,94,0.01,,,0.15,18.000000,,2013-05-30 13:11:00,
2013-05-30 07:22:00,46.0,44.0,-100.00,WSW,243,3.0,6.0,94,0.01,,,0.15,18.000000,,2013-05-30 13:22:00,
2013-05-30 07:42:00,46.0,44.0,-100.00,WSW,243,4.0,11.0,91,0.00,,,0.15,65.000000,,2013-05-30 13:42:00,
2013-05-30 07:52:00,46.0,44.0,-100.00,WSW,243,4.0,11.0,91,0.00,,,0.15,65.000000,,2013-05-30 13:52:00,
2013-05-30 08:01:00,46.0,44.0,-100.00,WSW,243,4.0,11.0,91,0.00,,,0.15,65.000000,,2013-05-30 14:01:00,
2013-05-30 08:11:00,46.0,44.0,-100.00,WSW,243,4.0,11.0,91,0.00,,,0.15,65.000000,,2013-05-30 14:11:00,
2013-05-30 08:22:00,46.0,44.0,-100.00,WSW,243,4.0,11.0,91,0.00,,,0.15,65.000000,,2013-05-30 14:22:00,
2013-05-30 08:42:00,47.0,45.0,-100.00,WSW,245,4.0,14.0,92,0.00,,,0.15,139.000000,,2013-05-30 14:42:00,
2013-05-30 08:52:00,47.0,45.0,-100.00,WSW,245,4.0,14.0,92,0.00,,,0.15,139.000000,,2013-05-30 14:52:00,
2013-05-30 09:01:00,47.0,45.0,-100.00,WSW,245,4.0,14.0,92,0.00,,,0.15,139.000000,,2013-05-30 15:01:00,
2013-05-30 09:11:00,47.0,45.0,-100.00,WSW,245,4.0,14.0,92,0.00,,,0.15,139.000000,,2013-05-30 15:11:00,
2013-05-30 09:22:00,47.0,45.0,-100.00,WSW,245,4.0,14.0,92,0.00,,,0.15,139.000000,,2013-05-30 15:22:00,
2013-05-30 09:43:00,48.0,45.0,-100.00,SW,232,6.0,15.0,88,0.00,,,0.15,315.000000,,2013-05-30 15:43:00,
2013-05-30 09:53:00,48.0,45.0,-100.00,SW,232,6.0,15.0,88,0.00,,,0.15,315.000000,,2013-05-30 15:53:00,
2013-05-30 10:03:00,48.0,45.0,-100.00,SW,232,6.0,15.0,88,0.00,,,0.15,315.000000,,2013-05-30 16:03:00,
2013-05-30 10:12:00,48.0,45.0,-100.00,SW,232,6.0,15.0,88,0.00,,,0.15,315.000000,,2013-05-30 16:12:00,
2013-05-30 10:22:00,48.0,45.0,-100.00,SW,232,6.0,15.0,88,0.00,,,0.15,315.000000,,2013-05-30 16:22:00,
2013-05-30 10:42:00,49.0,43.0,-100.00,SW,235,5.0,15.0,80,0.00,,,0.15,333.000000,,2013-05-30 16:42:00,
2013-05-30 10:53:00,49.0,43.0,-100.00,SW,235,5.0,15.0,80,0.00,,,0.15,333.000000,,2013-05-30 16:53:00,
2013-05-30 11:02:00,49.0,43.0,-100.00,SW,235,5.0,15.0,80,0.00,,,0.15,333.000000,,2013-05-30 17:02:00,
2013-05-30 11:11:00,49.0,43.0,-100.00,SW,235,5.0,15.0,80,0.00,,,0.15,333.000000,,2013-05-30 17:11:00,
2013-05-30 11:22:00,49.0,43.0,-100.00,SW,235,5.0,15.0,80,0.00,,,0.15,333.000000,,2013-05-30 17:22:00,
2013-05-30 11:42:00,46.0,43.0,-100.00,West,262,5.0,15.0,88,0.00,,,0.15,220.000000,,2013-05-30 17:42:00,
2013-05-30 11:52:00,46.0,43.0,-100.00,West,262,5.0,15.0,88,0.00,,,0.15,220.000000,,2013-05-30 17:52:00,
2013-05-30 12:02:00,46.0,43.0,-100.00,West,262,5.0,15.0,88,0.00,,,0.15,220.000000,,2013-05-30 18:02:00,
2013-05-30 12:11:00,46.0,43.0,-100.00,West,262,5.0,15.0,88,0.00,,,0.15,220.000000,,2013-05-30 18:11:00,
2013-05-30 12:21:00,46.0,43.0,-100.00,West,262,5.0,15.0,88,0.00,,,0.15,220.000000,,2013-05-30 18:21:00,
2013-05-30 12:43:00,47.0,43.0,-100.00,SW,230,6.0,20.0,86,0.00,,,0.15,374.000000,,2013-05-30 18:43:00,
2013-05-30 12:52:00,47.0,43.0,-100.00,SW,230,6.0,20.0,86,0.00,,,0.15,374.000000,,2013-05-30 18:52:00,
2013-05-30 13:01:00,47.0,43.0,-100.00,SW,230,6.0,20.0,86,0.00,,,0.15,374.000000,,2013-05-30 19:01:00,
2013-05-30 13:12:00,47.0,43.0,-100.00,SW,230,6.0,20.0,86,0.00,,,0.15,374.000000,,2013-05-30 19:12:00,
2013-05-30 13:23:00,47.0,43.0,-100.00,SW,230,6.0,20.0,86,0.00,,,0.15,374.000000,,2013-05-30 19:23:00,
2013-05-30 13:42:00,47.0,42.0,-100.00,WSW,244,6.0,16.0,83,0.00,,,0.15,275.000000,,2013-05-30 19:42:00,
2013-05-30 13:53:00,47.0,42.0,-100.00,WSW,244,6.0,16.0,83,0.00,,,0.15,275.000000,,2013-05-30 19:53:00,
2013-05-30 14:01:00,47.0,42.0,-100.00,WSW,244,6.0,16.0,83,0.00,,,0.15,275.000000,,2013-05-30 20:01:00,
2013-05-30 14:11:00,47.0,42.0,-100.00,WSW,244,6.0,16.0,83,0.00,,,0.15,275.000000,,2013-05-30 20:11:00,
2013-05-30 14:22:00,47.0,42.0,-100.00,WSW,244,6.0,16.0,83,0.00,,,0.15,275.000000,,2013-05-30 20:22:00,
2013-05-30 14:42:00,49.0,41.0,-100.00,SW,231,9.0,22.0,75,0.00,,,0.15,509.000000,,2013-05-30 20:42:00,
2013-05-30 14:52:00,49.0,41.0,-100.00,SW,231,9.0,22.0,75,0.00,,,0.15,509.000000,,2013-05-30 20:52:00,
2013-05-30 15:01:00,49.0,41.0,-100.00,SW,231,9.0,22.0,75,0.00,,,0.15,509.000000,,2013-05-30 21:01:00,
2013-05-30 15:11:00,49.0,41.0,-100.00,SW,231,9.0,22.0,75,0.00,,,0.15,509.000000,,2013-05-30 21:11:00,
2013-05-30 15:22:00,49.0,41.0,-100.00,SW,231,9.0,22.0,75,0.00,,,0.15,509.000000,,2013-05-30 21:22:00,
2013-05-30 15:43:00,47.0,40.0,-100.00,WSW,245,8.0,25.0,77,0.00,,,0.15,734.000000,,2013-05-30 21:43:00,
2013-05-30 15:53:00,47.0,40.0,-100.00,WSW,245,8.0,25.0,77,0.00,,,0.15,734.000000,,2013-05-30 21:53:00,
2013-05-30 16:02:00,47.0,40.0,-100.00,WSW,245,8.0,25.0,77,0.00,,,0.15,734.000000,,2013-05-30 22:02:00,
2013-05-30 16:12:00,47.0,40.0,-100.00,WSW,245,8.0,25.0,77,0.00,,,0.15,734.000000,,2013-05-30 22:12:00,
2013-05-30 16:22:00,47.0,40.0,-100.00,WSW,245,8.0,25.0,77,0.00,,,0.15,734.000000,,2013-05-30 22:22:00,
2013-05-30 16:42:00,46.0,42.0,-100.00,WSW,244,5.0,19.0,85,0.00,,,0.14,483.000000,,2013-05-30 22:42:00,
2013-05-30 16:52:00,46.0,42.0,-100.00,WSW,244,5.0,19.0,85,0.00,,,0.14,483.000000,,2013-05-30 22:52:00,
2013-05-30 17:02:00,46.0,42.0,-100.00,WSW,244,5.0,19.0,85,0.00,,,0.14,483.000000,,2013-05-30 23:02:00,
2013-05-30 17:11:00,46.0,42.0,-100.00,WSW,244,5.0,19.0,85,0.00,,,0.14,483.000000,,2013-05-30 23:11:00,
2013-05-30 17:22:00,46.0,42.0,-100.00,WSW,244,5.0,19.0,85,0.00,,,0.14,483.000000,,2013-05-30 23:22:00,
2013-05-30 17:42:00,43.0,41.0,-100.00,WSW,249,5.0,17.0,92,0.02,,,0.16,112.000000,,2013-05-30 23:42:00,
2013-05-30 17:52:00,43.0,41.0,-100.00,WSW,249,5.0,17.0,92,0.02,,,0.16,112.000000,,2013-05-30 23:52:00,
2013-05-30 18:01:00,43.0,41.0,-100.00,WSW,249,5.0,17.0,92,0.02,,,0.16,112.000000,,2013-05-31 00:01:00,
2013-05-30 18:11:00,43.0,41.0,-100.00,WSW,249,5.0,17.0,92,0.02,,,0.16,112.000000,,2013-05-31 00:11:00,
2013-05-30 18:21:00,43.0,41.0,-100.00,WSW,249,5.0,17.0,92,0.02,,,0.16,112.000000,,2013-05-31 00:21:00,
2013-05-30 18:42:00,42.0,39.0,-100.00,WSW,249,6.0,20.0,89,0.01,,,0.17,55.000000,,2013-05-31 00:42:00,
2013-05-30 18:52:00,42.0,39.0,-100.00,WSW,249,6.0,20.0,89,0.01,,,0.17,55.000000,,2013-05-31 00:52:00,
2013-05-30 19:01:00,42.0,39.0,-100.00,WSW,249,6.0,20.0,89,0.01,,,0.17,55.000000,,2013-05-31 01:01:00,
2013-05-30 19:12:00,42.0,39.0,-100.00,WSW,249,6.0,20.0,89,0.01,,,0.17,55.000000,,2013-05-31 01:12:00,
2013-05-30 19:21:00,42.0,39.0,-100.00,WSW,249,6.0,20.0,89,0.01,,,0.17,55.000000,,2013-05-31 01:21:00,
2013-05-30 19:42:00,41.0,37.0,-100.00,SW,229,7.0,16.0,86,0.01,,,0.18,30.000000,,2013-05-31 01:42:00,
2013-05-30 19:52:00,41.0,37.0,-100.00,SW,229,7.0,16.0,86,0.01,,,0.18,30.000000,,2013-05-31 01:52:00,
2013-05-30 20:02:00,41.0,37.0,-100.00,SW,229,7.0,16.0,86,0.01,,,0.18,30.000000,,2013-05-31 02:02:00,
2013-05-30 20:11:00,41.0,37.0,-100.00,SW,229,7.0,16.0,86,0.01,,,0.18,30.000000,,2013-05-31 02:11:00,
2013-05-30 20:21:00,41.0,37.0,-100.00,SW,229,7.0,16.0,86,0.01,,,0.18,30.000000,,2013-05-31 02:21:00,
2013-05-30 20:42:00,41.0,37.0,-100.00,SW,221,6.0,19.0,84,0.00,,,0.18,13.000000,,2013-05-31 02:42:00,
2013-05-30 20:52:00,41.0,37.0,-100.00,SW,221,6.0,19.0,84,0.00,,,0.18,13.000000,,2013-05-31 02:52:00,
2013-05-30 21:01:00,41.0,37.0,-100.00,SW,221,6.0,19.0,84,0.00,,,0.18,13.000000,,2013-05-31 03:01:00,
2013-05-30 21:11:00,41.0,37.0,-100.00,SW,221,6.0,19.0,84,0.00,,,0.18,13.000000,,2013-05-31 03:11:00,
2013-05-30 21:21:00,41.0,37.0,-100.00,SW,221,6.0,19.0,84,0.00,,,0.18,13.000000,,2013-05-31 03:21:00,
2013-05-30 21:43:00,41.0,36.0,-100.00,West,261,5.0,19.0,83,0.00,,,0.08,1.000000,,2013-05-31 03:43:00,
2013-05-30 21:53:00,41.0,36.0,-100.00,West,261,5.0,19.0,83,0.00,,,0.08,1.000000,,2013-05-31 03:53:00,
2013-05-30 22:02:00,41.0,36.0,-100.00,West,261,5.0,19.0,83,0.00,,,0.08,1.000000,,2013-05-31 04:02:00,
2013-05-30 22:12:00,41.0,36.0,-100.00,West,261,5.0,19.0,83,0.00,,,0.08,1.000000,,2013-05-31 04:12:00,
2013-05-30 22:22:00,41.0,36.0,-100.00,West,261,5.0,19.0,83,0.00,,,0.08,1.000000,,2013-05-31 04:22:00,
2013-05-30 22:43:00,41.0,36.0,-100.00,WSW,246,7.0,22.0,83,0.00,,,0.06,1.000000,,2013-05-31 04:43:00,
2013-05-30 22:53:00,41.0,36.0,-100.00,WSW,246,7.0,22.0,83,0.00,,,0.06,1.000000,,2013-05-31 04:53:00,
2013-05-30 23:02:00,41.0,36.0,-100.00,WSW,246,7.0,22.0,83,0.00,,,0.06,1.000000,,2013-05-31 05:02:00,
2013-05-30 23:12:00,41.0,36.0,-100.00,WSW,246,7.0,22.0,83,0.00,,,0.06,1.000000,,2013-05-31 05:12:00,
2013-05-30 23:22:00,41.0,36.0,-100.00,WSW,246,7.0,22.0,83,0.00,,,0.06,1.000000,,2013-05-31 05:22:00,
2013-05-30 23:42:00,41.0,36.0,-100.00,SW,231,7.0,16.0,83,0.00,,,0.06,1.000000,,2013-05-31 05:42:00,
2013-05-30 23:52:00,41.0,36.0,-100.00,SW,231,7.0,16.0,83,0.00,,,0.06,1.000000,,2013-05-31 05:52:00,